Vision of The Seas — C6SE8 — position and weather

sailwx.info

Track history (hours):
 
Tides and Currents Weather Stations Pressure Air Temp Water Temp Dewpoint Dewpoint Depression Visibility Wind Speed Wind Dir Waves Ship Positions

Vision of The Seas

Operator: Royal Caribbean Cruises Ltd

Last reported at 2020-Jan-26 05:29 UTC. Time now 2020-Jan-28 19:01 UTC.
Position N 18°14' W 065°06'.

Type: Passenger vessel. MMSI: 311321000.

Date/timePositionNaut miles runAvg speedWind from/ knotsBaromVisibWave heightAir tempDewpointWater temp
2020-Jan-26 05:29N 18°14' W 065°06'  
2020-Jan-19 06:30N 18°25' W 065°11'2511.6
2020-Jan-19 04:20N 18°41' W 065°32'3610.8
2020-Jan-19 00:59N 18°30' W 066°08'3 5.4
2020-Jan-19 00:29N 18°28' W 066°06'0 0.0
2020-Jan-18 21:59N 18°28' W 066°06'0 0.0
2020-Jan-18 21:29N 18°28' W 066°06'0 0.0
2020-Jan-18 20:29N 18°28' W 066°06'0 0.0
2020-Jan-18 19:29N 18°28' W 066°06'0 0.0
2020-Jan-18 17:59N 18°28' W 066°06'0 0.0
2020-Jan-18 17:29N 18°28' W 066°06'0 0.0
2020-Jan-18 16:29N 18°28' W 066°06'0 0.0
2020-Jan-18 15:29N 18°28' W 066°06'0 0.0
2020-Jan-18 14:59N 18°28' W 066°06'0 0.0
2020-Jan-18 13:29N 18°28' W 066°06'0 0.0
2020-Jan-18 10:29N 18°28' W 066°06'0 0.0
2020-Jan-18 09:56N 18°28' W 066°06'42 5.3
2020-Jan-18 02:00N 18°37' W 065°22'7 7.3
2020-Jan-18 01:00N 18°31' W 065°17'7 7.2
2020-Jan-18 00:00N 18°26' W 065°12'15 1.2
2020-Jan-17 11:29N 18°19' W 064°58'85 7.6
2020-Jan-17 00:23N 18°02' W 063°30'26 2.4
2020-Jan-16 13:32N 18°01' W 063°03'0 0.1
2020-Jan-16 11:00N 18°00' W 063°03'1912.1
2020-Jan-16 09:25N 17°42' W 063°06'  
Track history (hours):
 
Tides and Currents Weather Stations Pressure Air Temp Water Temp Dewpoint Dewpoint Depression Visibility Wind Speed Wind Dir Waves Ship Positions

Vision of The Seas

Operator: Royal Caribbean Cruises Ltd

Last reported at 2020-Jan-26 05:29 UTC. Time now 2020-Jan-28 19:01 UTC.
Position N 18°14' W 065°06'.

Type: Passenger vessel. MMSI: 311321000.

Date/timePositionNaut miles runAvg speedWind from/ knotsBaromVisibWave heightAir tempDewpointWater temp
2020-Jan-26 05:29N 18°14' W 065°06'  
2020-Jan-19 06:30N 18°25' W 065°11'2511.6
2020-Jan-19 04:20N 18°41' W 065°32'3610.8
2020-Jan-19 00:59N 18°30' W 066°08'3 5.4
2020-Jan-19 00:29N 18°28' W 066°06'0 0.0
2020-Jan-18 21:59N 18°28' W 066°06'0 0.0
2020-Jan-18 21:29N 18°28' W 066°06'0 0.0
2020-Jan-18 20:29N 18°28' W 066°06'0 0.0
2020-Jan-18 19:29N 18°28' W 066°06'0 0.0
2020-Jan-18 17:59N 18°28' W 066°06'0 0.0
2020-Jan-18 17:29N 18°28' W 066°06'0 0.0
2020-Jan-18 16:29N 18°28' W 066°06'0 0.0
2020-Jan-18 15:29N 18°28' W 066°06'0 0.0
2020-Jan-18 14:59N 18°28' W 066°06'0 0.0
2020-Jan-18 13:29N 18°28' W 066°06'0 0.0
2020-Jan-18 10:29N 18°28' W 066°06'0 0.0
2020-Jan-18 09:56N 18°28' W 066°06'42 5.3
2020-Jan-18 02:00N 18°37' W 065°22'7 7.3
2020-Jan-18 01:00N 18°31' W 065°17'7 7.2
2020-Jan-18 00:00N 18°26' W 065°12'15 1.2
2020-Jan-17 11:29N 18°19' W 064°58'85 7.6
2020-Jan-17 00:23N 18°02' W 063°30'26 2.4
2020-Jan-16 13:32N 18°01' W 063°03'0 0.1
2020-Jan-16 11:00N 18°00' W 063°03'1912.1
2020-Jan-16 09:25N 17°42' W 063°06'  

Dump ship's entire track history